Hourly Data Report for February 24, 2018

MIRAMICHI RCS
NEW BRUNSWICK

47°00'34.000" N
65°27'54.000" W
33.00 m
8100989
71744
ACQ

Download Data

Hourly Data (February 2018)
Hourly Data Report for February 24, 2018
TIME
LST
Temp Definition
°C
Dew Point Definition
°C
Rel Hum Definition
%
Precip. Amount Definition
mm

Wind Dir Definition
10's deg

Wind Spd Definition
km/h
Visibility Definition
km
Stn Press Definition
kPa
Hmdx Definition


Wind Chill Definition


Weather Definition


00:00 -5.0 -6.5 89 0.2 21 19   101.15   -11 LegendNANA
01:00 -4.8 -6.3 89 0.0 20 16   100.92   -11 LegendNANA
02:00 -4.3 -5.7 90 0.0 21 18   100.69   -10 LegendNANA
03:00 -3.8 -5.2 90 0.0 22 23   100.48   -11 LegendNANA
04:00 -3.3 -4.7 90 0.0 22 18   100.36   -9 LegendNANA
05:00 -2.6 -3.9 91 0.0 23 17   100.30   -8 LegendNANA
06:00 -2.3 -3.5 92 0.0 24 14   100.27   -7 LegendNANA
07:00 -1.6 -2.7 92 0.0 25 14   100.25   -6 LegendNANA
08:00 -1.1 -2.3 92 0.0 26 8   100.33   -4 LegendNANA
09:00 0.3 -1.7 86 0.0 26 9   100.39     LegendNANA
10:00 1.9 -5.0 60 0.0 29 21   100.46     LegendNANA
11:00 1.6 -6.0 57 0.0 31 19   100.49     LegendNANA
12:00 2.2 -7.7 48 0.0 31 21   100.57     LegendNANA
13:00 3.4 -6.8 47 0.0 29 17   100.61     LegendNANA
14:00 3.4 -6.9 47 0.0 29 20   100.66     LegendNANA
15:00 2.8 -8.0 45 0.0 30 21   100.79     LegendNANA
16:00 2.1 -8.4 46 0.0 29 25   100.91     LegendNANA
17:00 2.0 -8.8 44 0.0 29 18   101.05     LegendNANA
18:00 1.2 -8.5 49 0.0 29 16   101.18     LegendNANA
19:00 0.2 -9.2 49 0.0 30 16   101.32     LegendNANA
20:00 -0.8 -10.4 48 0.0 29 15   101.41   -5 LegendNANA
21:00 -1.2 -11.1 47 0.0 31 12   101.58   -5 LegendNANA
22:00 -2.0 -11.6 48 0.0 31 10   101.73   -6 LegendNANA
23:00 -2.8 -13.1 45 0.0 34 8   101.95   -6 LegendNANA

Notes on Data Quality.

Legend

  • E = Estimated
  • M = Missing
  • NA = Not Available*
  • [empty] = Indicates an unobserved value
Date modified: